Theta_e
323 323 323 324 324 324 324 325 326 327 328 328 329 329 329 329 328 328 328 328 328 328 329 328 329 329 327 328 329 326 322 322 319 316 312 316 325 329 333 333 334 334 334 329 317 313 311 312 311 314 314 314 316 312 316 314 314 314 305 302 301 303 302 306 304 305 306 303 304 302 303 303 302 301 303 303 303 303 305 304 306 308 307 307 302 304 309 306
322 323 323 323 324 324 324 324 325 326 327 328 328 329 328 328 328 327 328 328 327 327 327 329 328 329 329 327 328 323 323 326 316 315 315 326 333 329 333 334 334 334 330 318 314 312 311 310 311 312 311 309 318 311 313 312 313 307 305 304 301 304 306 307 306 306 304 304 305 304 304 304 304 304 303 300 302 302 301 303 304 304 305 305 302 304 305 304
322 322 323 323 323 324 324 325 325 325 326 327 327 328 328 326 327 328 327 328 327 327 327 328 329 329 327 328 325 320 326 320 319 313 315 328 329 333 331 332 334 334 329 318 316 315 312 311 312 310 310 309 312 309 311 311 308 308 306 302 303 309 307 306 306 305 306 305 304 304 304 303 305 305 304 300 302 304 301 302 302 302 303 304 302 302 303 303
321 322 322 322 323 324 324 324 324 325 325 326 327 327 327 327 327 327 327 327 327 327 327 328 328 328 327 326 324 332 324 318 309 314 316 328 331 330 332 331 331 329 326 316 314 313 312 312 312 311 310 307 310 312 306 310 305 309 303 301 305 306 304 306 306 306 305 305 304 304 303 301 304 304 303 302 301 302 304 306 305 303 304 306 304 302 303 302
320 321 322 321 322 323 323 324 324 324 325 325 326 326 326 327 327 327 327 327 327 326 327 327 329 328 326 327 321 329 321 306 310 314 319 329 329 331 329 331 329 327 319 316 313 312 312 311 310 309 309 306 309 308 306 309 309 308 304 307 306 306 303 306 305 304 303 303 303 303 301 302 306 304 302 302 300 301 305 308 308 308 308 308 304 302 303 302
320 321 321 321 321 322 323 324 324 324 325 325 325 326 326 326 327 326 326 326 327 326 326 327 328 328 327 325 329 326 315 298 315 320 325 325 329 327 328 328 327 323 315 312 311 312 311 310 309 306 306 306 306 304 307 307 307 300 306 307 307 306 304 305 304 302 302 302 302 301 303 304 301 302 304 303 302 305 308 307 308 309 309 309 305 303 302 302
320 320 320 321 321 321 322 323 323 324 325 325 325 326 326 326 327 326 325 326 326 326 325 327 327 327 326 325 325 320 311 311 315 323 324 324 320 328 324 323 323 317 313 310 310 311 312 310 308 307 306 306 307 306 306 306 305 304 302 305 304 305 303 305 303 301 302 302 301 304 303 301 302 299 305 303 305 307 309 307 306 306 306 307 304 303 303 302
319 319 319 320 320 320 321 322 323 324 324 325 325 325 326 326 327 326 325 325 325 325 326 326 327 326 325 330 318 309 311 311 317 318 320 320 320 320 324 319 315 316 311 309 310 310 311 309 308 309 306 304 306 305 305 303 304 302 302 305 305 303 304 305 304 302 302 302 304 301 300 301 302 302 304 302 305 307 307 308 306 305 305 305 305 303 304 303
318 318 319 319 320 320 320 322 322 322 323 324 325 325 325 326 325 325 326 324 325 326 325 326 325 326 322 322 314 309 308 321 315 316 320 316 317 315 317 316 313 312 311 310 310 311 310 309 309 309 304 305 307 304 304 303 301 304 304 304 304 303 304 304 303 303 302 302 302 300 299 302 303 304 299 303 305 307 308 307 307 305 304 304 304 304 303 303
318 318 319 319 319 319 320 320 322 322 323 323 324 324 325 326 325 326 325 325 325 324 324 326 328 324 323 317 315 303 317 311 315 316 314 313 314 314 311 317 311 311 309 310 310 311 310 311 311 311 309 307 307 304 304 302 301 301 303 303 302 303 304 304 302 303 303 302 302 299 300 301 302 300 299 306 307 307 307 306 307 305 303 303 303 304 304 303
318 318 318 319 319 319 319 320 320 321 322 323 323 324 324 324 325 325 324 324 325 324 324 325 325 321 321 317 308 303 315 320 315 316 314 314 313 313 319 316 312 314 310 311 310 311 313 311 313 310 308 305 305 304 303 303 302 302 301 301 302 302 303 303 302 301 302 300 301 301 299 302 301 299 299 304 302 305 305 305 305 305 303 303 304 303 304 303
318 318 318 318 319 319 319 319 320 320 321 321 322 323 324 324 324 324 324 323 324 323 325 320 322 322 317 313 307 310 310 316 317 316 316 319 315 314 315 311 310 319 314 309 313 317 316 314 313 308 303 307 303 304 303 303 302 301 301 298 301 303 302 303 301 301 301 300 301 301 298 297 299 297 302 305 303 303 304 304 304 303 303 304 304 303 303 303
318 317 317 318 318 318 319 319 319 320 320 320 321 322 323 323 324 324 323 322 324 323 322 325 316 320 319 307 310 313 315 315 316 315 315 316 315 314 314 316 314 311 313 312 313 316 315 313 312 307 309 306 305 301 301 302 301 301 301 299 299 299 299 304 304 302 299 301 301 301 292 297 299 300 305 307 303 303 302 302 303 303 303 303 304 303 303 303
319 318 317 318 318 318 318 319 319 319 319 320 321 322 322 323 323 323 322 322 324 325 326 323 330 320 313 305 312 313 313 316 315 315 315 317 315 316 317 317 316 314 317 315 313 313 312 309 311 308 308 304 303 304 301 301 300 298 301 299 296 296 297 302 301 300 297 300 300 301 293 296 301 304 305 307 304 302 301 302 302 303 303 303 303 303 302 302
319 318 318 318 318 318 318 319 319 319 319 320 321 321 321 321 322 322 321 324 325 326 320 320 323 318 307 306 311 313 319 312 311 316 316 311 313 312 312 312 312 312 312 312 311 310 309 313 310 305 304 302 304 301 300 301 300 300 297 295 299 296 299 300 302 299 299 297 300 299 294 295 300 303 306 306 305 303 302 303 303 304 304 303 302 302 302 302
318 319 318 318 318 318 319 318 318 318 319 320 320 320 320 320 321 321 323 325 321 325 327 324 318 316 308 303 314 318 313 309 310 317 314 311 318 312 315 312 313 312 310 308 310 309 309 311 305 305 302 302 301 300 299 299 300 301 297 296 296 298 299 300 299 301 301 299 298 298 295 298 299 303 303 304 304 303 302 303 304 304 304 304 303 302 301 301
319 319 317 318 319 319 319 318 318 318 319 319 319 319 320 320 321 321 325 323 322 323 327 314 315 313 301 312 312 308 308 313 312 314 311 312 310 314 312 311 309 308 310 308 310 311 308 306 305 305 304 301 303 302 296 295 296 298 300 296 300 297 298 296 297 297 300 299 296 297 295 297 299 302 303 301 303 302 301 302 302 303 303 304 305 302 301 301
320 319 318 318 319 319 319 318 318 318 319 319 319 319 320 322 320 320 320 322 322 321 320 314 314 308 304 307 303 305 310 309 315 312 313 309 313 311 311 307 308 308 308 306 308 306 307 303 304 299 302 301 300 298 294 291 296 296 297 297 297 299 298 297 297 298 297 298 296 298 296 296 299 301 302 303 303 301 301 302 302 302 303 303 304 304 302 301
320 319 319 319 319 319 319 318 319 319 319 319 320 322 322 321 319 321 316 313 311 307 301 305 305 297 297 306 307 308 313 311 312 312 308 310 311 311 308 310 310 305 304 302 303 303 306 304 305 300 296 299 298 298 297 298 300 298 298 297 297 295 296 297 300 296 298 295 294 295 294 296 298 300 302 303 304 303 302 302 302 302 303 303 303 304 304 302
320 320 320 319 318 318 319 319 319 319 319 317 317 319 319 314 313 307 307 309 305 305 306 307 307 307 306 304 307 309 313 314 307 311 312 311 309 306 306 306 309 306 302 300 304 302 308 298 297 297 299 301 302 302 301 301 301 300 299 298 296 296 297 300 301 295 298 295 295 296 296 296 297 299 300 302 303 302 301 301 301 302 302 303 303 303 304 303
320 320 320 318 318 318 318 320 319 319 319 317 316 311 301 302 300 299 303 304 307 307 305 305 306 305 304 311 311 307 305 306 309 309 310 313 312 306 303 304 302 299 301 302 303 303 302 297 297 300 301 302 303 304 303 302 301 298 297 296 295 298 295 300 300 294 296 293 294 297 296 296 297 298 300 301 300 299 300 300 301 302 303 303 304 304 304 304
320 320 320 319 318 319 319 320 320 319 318 317 314 307 305 306 310 307 301 297 305 309 308 307 305 303 305 305 312 312 308 303 305 308 311 309 306 301 303 301 300 297 303 303 302 299 297 295 299 302 303 303 301 301 301 299 298 299 296 296 295 296 300 301 297 293 294 293 292 295 294 295 297 298 300 300 299 300 302 302 302 302 303 303 304 305 305 304
320 320 319 319 318 319 319 320 319 318 316 312 312 306 308 307 309 312 308 304 301 310 306 306 302 302 303 306 306 307 301 300 299 307 306 308 304 302 303 299 299 299 303 301 297 296 294 297 301 303 303 301 299 297 298 297 298 296 296 294 293 298 297 294 295 293 293 293 293 294 292 293 296 298 298 300 300 301 303 303 303 304 303 303 304 305 305 304
320 320 319 319 319 319 320 320 319 318 315 311 310 308 309 308 309 311 309 298 298 305 306 307 305 304 303 303 308 303 300 301 301 302 308 307 301 304 303 301 299 299 298 300 299 297 296 300 298 300 302 300 298 297 296 295 294 297 297 296 296 297 298 297 296 294 296 296 293 293 292 293 296 296 297 300 301 301 301 302 302 303 305 305 307 307 307 304
320 319 319 319 318 319 319 319 315 312 314 312 309 308 308 307 307 310 305 299 300 301 310 307 308 307 307 308 307 302 303 302 303 307 307 307 303 301 300 304 300 296 298 300 299 297 297 301 300 298 298 298 299 296 296 298 294 296 299 298 298 299 297 299 299 294 293 293 294 294 288 290 296 298 298 300 298 297 299 298 299 300 302 303 303 304 306 306
320 319 319 318 318 319 319 314 313 313 311 311 309 309 307 308 309 309 304 295 291 301 299 297 308 301 313 303 306 305 302 298 304 305 307 307 308 304 301 298 301 295 298 299 297 298 299 299 299 299 300 298 298 296 299 299 294 293 296 300 300 298 297 297 295 294 289 288 293 294 287 285 294 294 297 299 297 297 299 298 298 300 303 304 306 307 305 303
320 320 319 319 319 319 313 308 315 311 310 311 310 310 305 307 312 307 296 292 288 300 297 305 302 302 310 305 304 303 292 296 301 303 303 305 302 309 298 298 299 299 300 302 297 294 300 296 296 298 298 297 296 294 298 298 295 293 294 295 296 296 295 295 295 293 291 295 296 294 293 286 287 293 297 298 296 297 298 299 301 302 302 302 303 307 305 303
320 320 319 319 319 317 313 313 313 309 308 308 311 307 307 309 310 309 295 283 283 306 299 298 303 309 308 302 306 299 297 297 297 298 301 303 302 302 298 297 298 298 298 298 289 302 299 297 295 295 295 295 294 297 302 301 296 295 293 296 295 295 295 294 293 291 292 290 286 291 294 287 287 293 297 297 293 294 295 297 298 300 302 303 305 306 306 304
319 319 318 319 317 314 317 314 311 309 311 313 309 310 309 311 306 300 292 282 302 299 309 299 309 305 301 302 298 298 297 299 296 297 302 302 302 300 296 298 299 299 300 299 293 299 297 297 299 299 296 294 298 291 295 300 295 293 294 295 295 295 294 294 291 291 290 287 284 289 292 286 287 294 293 295 294 294 295 297 298 300 302 304 306 307 305 304
319 319 319 318 316 315 315 315 311 314 312 310 310 308 311 306 300 291 286 279 303 293 299 301 299 299 301 297 296 298 294 296 296 297 300 299 301 302 298 299 298 297 296 298 296 298 295 294 296 297 297 298 292 291 292 293 294 295 297 295 294 293 293 291 292 290 288 284 286 291 292 290 284 292 292 291 293 296 297 298 300 302 304 304 307 308 305 303
319 319 318 316 314 316 315 308 314 312 311 309 309 309 306 301 292 288 282 291 299 298 300 298 296 302 297 297 295 298 297 296 294 296 294 297 296 298 299 296 301 296 292 294 293 297 295 294 295 296 298 294 296 292 292 292 294 296 293 292 293 291 291 289 288 289 284 283 289 292 292 292 283 288 293 296 299 299 299 298 299 300 302 304 309 305 303 302
319 319 318 317 318 319 309 308 312 312 309 310 309 306 300 288 294 284 285 298 291 296 296 297 300 299 298 300 301 296 295 296 297 294 294 292 293 292 293 293 294 289 289 290 290 296 293 294 297 297 296 296 293 295 290 292 292 294 293 292 287 286 287 284 285 281 283 283 288 292 294 289 287 291 296 297 298 299 300 300 300 300 301 303 309 304 302 301
318 318 317 317 316 316 315 317 314 312 311 308 306 303 292 287 281 289 289 293 291 300 295 304 299 297 299 298 297 299 300 295 298 295 298 296 294 295 297 296 299 297 290 294 292 291 294 297 296 297 294 296 298 291 291 288 289 290 290 289 287 283 283 280 284 287 286 289 290 288 292 286 291 293 297 297 299 300 300 301 302 301 301 302 307 303 299 297
318 318 316 316 318 317 318 315 313 311 308 308 302 293 292 284 284 298 294 293 296 296 301 298 298 299 299 295 298 300 293 299 296 295 296 294 293 292 295 297 298 296 294 292 289 291 288 289 292 295 292 298 296 296 297 296 290 290 295 292 289 288 284 280 283 281 283 286 287 289 285 284 284 290 298 299 300 301 301 301 302 303 303 305 300 298 297 295
318 318 318 317 316 318 316 314 312 311 308 304 296 290 284 285 290 289 291 294 297 297 296 297 297 296 295 296 299 299 299 296 298 296 293 293 291 291 293 294 297 298 298 288 293 290 290 290 298 299 298 297 294 299 301 296 293 293 294 296 290 288 293 285 287 287 285 284 284 284 283 290 290 298 298 300 300 300 301 301 301 301 302 303 298 297 295 294
317 316 318 313 312 317 314 312 310 310 308 299 293 286 284 289 288 294 293 299 297 296 295 296 299 294 293 294 298 297 303 296 298 296 294 294 296 294 298 298 296 297 293 289 293 287 289 288 296 295 295 295 294 296 298 300 287 291 292 287 291 297 294 289 288 287 284 284 282 288 287 291 295 296 297 297 298 298 299 299 300 300 302 301 301 299 298 295
314 316 310 313 314 316 313 311 310 309 306 298 290 284 290 291 297 298 298 296 296 299 295 290 291 290 291 291 294 295 296 297 295 294 291 296 292 296 297 298 302 298 298 296 291 295 288 291 291 294 290 291 289 293 295 294 297 292 286 291 295 298 295 289 283 286 284 281 283 289 286 287 288 285 296 295 294 296 297 297 298 299 300 299 301 300 299 298
314 313 313 313 315 314 313 311 310 307 301 293 286 289 295 292 298 297 300 297 296 299 294 291 293 297 291 291 292 294 297 292 293 293 291 295 291 302 297 296 301 299 298 299 292 292 296 286 293 291 291 291 291 294 293 295 295 292 291 296 289 284 283 288 286 278 279 279 281 285 287 288 290 290 293 292 293 294 296 298 297 297 298 299 299 299 299 299
314 312 305 313 315 314 312 311 308 302 295 288 286 287 295 297 301 299 299 298 299 297 291 294 292 296 295 291 294 296 295 289 295 292 289 294 290 300 298 299 298 300 299 298 293 291 293 287 289 287 290 290 290 291 286 289 293 292 293 291 293 289 287 286 286 286 285 280 281 281 286 284 292 293 295 294 295 295 296 297 297 298 299 299 298 298 299 298
310 304 303 315 315 315 312 310 303 298 292 285 287 289 298 296 299 299 298 297 296 294 293 293 295 291 294 294 295 293 296 295 294 293 292 296 293 300 297 301 300 299 299 298 295 298 290 291 284 286 287 291 286 289 288 291 287 286 287 286 289 287 290 289 289 287 284 282 282 281 280 285 293 296 296 296 296 297 297 297 299 299 300 300 300 299 299 299
312 305 302 311 313 313 311 304 296 291 289 293 295 293 295 295 298 298 299 299 300 300 295 295 293 290 293 292 294 296 294 294 295 293 294 294 294 290 299 300 301 299 299 297 296 296 289 287 285 285 283 285 289 294 293 295 294 291 289 287 289 286 284 282 280 290 286 284 281 281 280 287 294 297 297 296 297 298 299 299 299 301 300 299 300 300 300 299
306 297 301 311 312 311 304 293 292 295 291 288 289 294 293 301 298 299 297 298 298 294 297 293 295 294 294 293 294 294 294 293 294 293 295 292 296 294 299 302 300 301 296 290 293 297 295 290 288 285 286 288 292 296 296 297 296 296 293 290 293 291 289 286 280 284 285 286 287 286 283 285 296 298 297 297 298 298 298 299 298 300 300 299 300 300 300 300
303 301 306 309 312 309 300 292 293 290 288 292 298 297 298 297 297 298 296 296 293 294 292 291 291 292 293 292 294 291 293 289 293 292 295 296 296 298 305 300 303 300 299 295 299 297 293 288 285 286 290 291 291 288 293 291 293 291 292 294 293 289 290 288 287 288 285 286 283 283 280 284 295 299 298 298 299 299 299 298 298 298 298 298 298 299 299 298
304 302 300 309 312 308 298 286 286 286 289 294 295 294 299 298 297 295 295 297 294 293 291 291 293 295 291 296 294 290 293 285 291 291 291 295 293 300 300 300 301 297 296 295 293 296 288 287 286 283 283 284 288 290 287 289 291 288 289 291 293 294 293 292 290 287 283 284 285 283 278 285 294 298 298 298 297 297 297 297 297 297 298 298 297 298 298 297
302 301 300 302 307 305 295 296 293 290 289 289 291 290 293 295 298 297 297 296 297 296 294 292 293 296 293 293 291 292 293 290 286 291 292 291 292 299 301 299 300 297 298 303 296 296 289 287 286 280 277 276 277 278 281 283 283 288 290 291 292 291 291 288 284 285 281 284 286 283 283 288 294 296 296 296 297 297 298 298 297 297 297 297 297 297 296 295
298 292 297 297 301 299 298 300 296 295 290 289 289 291 294 292 297 299 299 296 298 296 295 295 293 292 291 291 288 288 288 292 289 287 288 287 290 293 293 296 300 297 296 296 294 293 287 288 289 286 283 282 284 287 293 290 287 284 286 288 289 292 292 290 288 285 282 285 284 286 287 287 290 292 294 295 296 295 296 297 296 295 295 297 298 297 297 296
301 295 293 287 297 296 294 297 294 296 291 294 286 292 290 292 294 296 301 294 298 297 294 293 292 290 289 290 287 288 289 289 290 288 287 287 289 291 292 294 294 295 293 292 293 292 285 284 287 288 287 288 290 290 292 293 288 287 287 286 289 289 288 286 285 283 288 285 280 287 289 287 288 292 293 294 295 296 297 297 297 297 296 295 295 295 295 295
292 297 302 299 294 287 289 288 293 292 295 296 290 295 292 292 292 290 297 298 299 299 293 292 292 291 291 291 290 286 288 288 288 285 288 288 288 290 290 291 288 292 291 289 289 289 285 284 287 287 287 290 291 290 291 291 291 291 289 289 287 288 287 284 285 288 289 284 282 287 289 287 289 292 294 295 296 296 296 297 298 298 297 297 296 294 294 294
299 298 298 303 294 298 294 295 295 292 291 293 291 293 291 292 292 295 295 294 295 293 296 288 291 293 292 292 291 288 289 285 285 288 287 288 288 289 287 289 289 289 289 287 288 288 286 284 287 287 286 287 288 289 290 289 288 289 288 288 289 288 288 288 287 289 289 287 288 289 289 289 291 293 294 295 297 297 297 298 297 296 296 296 296 295 295 296
292 294 293 301 298 296 296 295 294 293 289 292 288 290 292 292 292 295 297 296 291 293 298 292 293 295 294 293 292 289 290 292 291 289 291 290 289 289 288 290 288 287 288 286 288 288 287 283 289 287 284 284 286 288 289 288 288 286 287 288 287 287 288 289 289 290 289 289 290 289 288 287 293 295 295 296 297 297 296 295 295 296 296 296 296 296 296 296
298 300 297 291 288 291 294 293 292 291 289 290 288 289 292 292 293 296 296 300 296 293 295 292 295 295 296 295 293 292 295 294 294 295 296 295 290 292 290 287 293 285 287 285 287 286 287 284 288 285 282 281 286 286 287 288 288 286 285 286 286 286 285 287 286 289 287 285 287 287 285 286 292 295 295 295 295 295 294 295 295 296 296 296 295 295 296 296
295 297 299 294 286 292 289 292 293 291 286 290 291 291 291 291 295 296 292 298 300 300 299 298 297 296 294 295 293 295 297 298 297 298 299 299 300 292 295 294 294 289 286 286 290 286 286 285 283 283 280 279 285 286 285 285 283 280 281 285 286 287 288 289 290 290 290 291 286 284 285 291 293 295 294 294 294 294 294 294 295 295 296 296 296 296 296 296
Wind_Speed
16 15 15 15 16 16 16 15 15 15 16 16 16 15 16 15 14 13 12 12 12 10 7 7 6 6 5 4 3 2 4 4 5 7 7 3 7 6 4 1 2 0 4 3 3 5 7 8 7 6 5 5 3 5 4 3 1 3 5 6 8 7 8 1 5 5 3 8 3 6 7 7 8 6 5 2 7 10 10 9 9 8 9 3 6 3 8 13
16 16 15 15 16 14 14 14 14 15 15 15 15 15 16 16 15 13 11 10 12 12 10 7 7 6 6 5 2 2 2 6 9 9 10 5 7 5 3 2 2 4 4 4 5 7 6 7 7 7 6 6 4 2 5 2 2 5 5 6 8 6 3 3 4 5 6 6 2 2 6 7 7 7 7 7 9 11 13 15 10 12 12 8 9 8 12 13
15 15 14 14 15 14 13 14 14 14 14 15 15 14 14 15 15 14 13 12 11 11 11 8 7 6 5 5 2 3 3 8 9 14 3 3 7 4 2 3 2 4 5 5 4 6 6 6 4 7 8 7 6 5 6 4 4 7 5 7 8 2 3 2 2 6 4 6 6 4 5 7 6 3 8 7 11 10 15 12 12 15 16 17 13 13 13 14
15 15 14 15 14 14 13 14 14 14 14 14 14 14 13 12 14 15 15 13 12 11 10 10 7 5 6 4 0 3 4 6 11 2 5 5 5 3 2 1 2 5 5 5 4 5 4 5 6 8 5 8 4 3 5 4 5 3 5 7 5 3 5 3 2 4 4 2 7 7 1 5 8 6 7 6 9 15 15 15 14 16 18 16 16 15 14 15
15 15 15 14 14 14 14 14 14 14 14 15 15 14 14 13 12 13 14 14 12 13 11 11 8 6 5 5 5 4 4 7 1 5 7 7 4 3 2 2 2 4 4 3 3 4 5 4 4 5 5 7 6 5 9 6 3 1 8 8 5 1 6 1 1 3 1 2 5 6 6 7 1 5 11 11 12 12 8 9 16 16 13 13 17 16 15 16
14 14 14 14 14 14 14 15 15 16 15 15 14 14 14 13 12 13 14 13 13 12 12 10 8 6 5 5 5 4 3 4 2 3 5 5 3 3 3 2 3 4 3 5 5 3 6 5 5 6 5 8 7 8 4 4 5 7 10 12 6 6 8 2 1 2 2 4 7 8 7 2 6 8 10 14 19 17 1 1 4 4 6 2 17 16 15 17
12 14 15 14 14 14 14 15 15 16 15 16 16 15 15 14 11 13 14 13 12 12 12 10 7 8 6 3 4 5 9 8 5 4 4 4 3 2 4 3 4 4 5 6 6 5 6 6 6 7 8 8 9 9 4 5 4 7 8 2 6 5 8 4 2 4 3 5 8 5 4 7 8 14 9 16 21 20 13 3 3 3 4 7 13 17 18 19
11 12 13 14 14 15 15 15 15 16 16 16 16 16 16 15 13 11 12 14 13 12 11 9 7 6 5 3 3 5 8 8 5 2 4 2 3 5 4 3 4 2 5 7 5 7 5 8 7 3 7 9 3 6 3 4 8 9 9 8 3 1 8 7 4 5 5 7 7 3 8 13 11 12 8 19 19 17 16 11 7 7 7 9 12 15 15 16
10 12 12 13 13 13 15 15 15 16 16 16 16 17 17 15 15 13 12 14 14 11 12 7 6 6 4 4 5 7 9 3 3 4 1 3 3 5 2 4 4 6 3 4 4 6 5 5 5 4 7 7 2 9 2 5 8 10 10 5 6 6 6 7 7 8 9 5 6 7 13 12 13 6 14 24 20 17 15 15 14 9 10 12 13 14 15 16
11 12 13 13 13 13 15 15 15 16 16 16 17 17 17 17 15 14 15 15 12 12 12 8 5 5 3 4 5 7 1 3 2 3 3 2 4 5 4 3 1 6 6 3 4 6 6 5 3 4 5 10 5 6 4 5 4 4 7 8 9 11 8 7 11 10 8 8 7 11 12 12 3 3 13 13 14 11 15 16 14 13 13 14 12 13 14 16
10 12 12 13 13 13 15 15 15 16 17 17 17 17 18 18 16 13 15 16 13 11 9 7 4 1 4 4 7 9 2 2 1 3 2 1 1 2 2 2 2 3 7 3 4 3 4 3 2 1 3 3 1 4 5 3 6 6 6 10 13 14 14 11 10 11 5 8 12 10 12 11 7 6 19 10 5 5 10 12 13 13 12 12 14 13 13 14
10 11 12 12 12 13 14 15 16 16 17 18 18 18 18 18 17 12 12 15 15 8 4 1 1 3 5 7 9 5 1 2 1 2 3 0 3 2 1 1 2 3 4 6 3 1 3 1 4 3 5 5 6 4 5 3 4 4 6 10 12 12 11 13 15 12 11 6 7 5 8 13 13 13 24 20 7 8 9 11 12 13 12 12 12 13 12 13
9 10 12 12 12 12 13 15 16 16 16 18 18 18 19 18 16 13 14 15 7 4 1 2 2 4 5 8 6 3 3 4 4 5 5 5 6 3 2 1 1 1 2 5 2 1 1 0 2 9 2 4 8 5 3 4 3 5 8 9 12 12 15 16 10 5 9 5 8 6 8 11 16 25 21 13 11 10 10 12 12 12 12 12 12 12 13 12
7 10 12 12 11 11 12 14 15 16 17 17 19 19 19 19 15 14 13 11 9 3 4 5 4 5 5 7 3 1 2 1 1 4 4 3 4 3 3 2 2 1 1 2 5 2 1 1 2 1 0 4 4 4 5 4 4 6 2 2 8 9 12 7 8 10 8 5 8 6 10 13 14 14 19 10 12 12 12 13 13 13 12 12 12 12 13 14
9 11 12 12 12 11 11 13 15 15 16 17 18 19 19 20 15 14 11 8 1 3 3 3 4 3 7 4 4 3 2 2 4 4 2 3 5 4 4 4 5 5 4 5 3 1 1 1 3 4 4 2 2 5 8 9 7 7 6 9 8 9 8 8 7 12 10 4 8 8 10 14 18 16 9 11 10 10 11 11 12 13 13 13 12 14 13 14
10 12 13 14 15 13 12 13 13 15 17 17 18 20 20 17 12 11 7 3 2 3 3 3 5 5 7 11 2 4 3 5 6 5 2 2 3 3 5 5 4 3 3 4 2 2 2 3 4 3 2 3 5 8 9 9 9 9 9 11 12 9 10 9 12 10 7 7 8 14 9 9 11 3 8 4 9 8 10 12 12 15 17 15 13 13 13 13
11 11 14 15 16 15 13 14 14 15 16 16 19 20 18 14 8 4 1 3 3 3 3 2 4 4 7 2 2 4 5 3 3 3 3 1 2 3 6 5 4 4 4 4 2 3 4 5 2 3 5 9 7 6 6 9 10 9 9 10 10 12 10 10 6 6 7 9 9 14 12 16 16 16 9 6 8 10 12 15 17 17 18 17 14 14 14 15
10 10 13 15 16 14 14 15 14 16 17 17 20 18 16 17 5 3 4 3 1 3 2 1 3 2 9 4 7 1 5 4 3 3 2 1 3 4 3 4 2 4 4 5 3 6 5 4 4 8 6 7 8 8 7 10 8 10 8 8 9 11 13 14 12 6 9 9 11 11 17 20 20 18 18 16 10 13 15 16 18 20 21 17 15 15 16 15
11 10 12 14 14 13 14 15 16 16 17 20 20 19 8 4 1 5 4 4 4 3 4 6 5 7 6 3 5 6 1 3 2 2 4 5 2 1 1 2 5 6 6 5 4 9 4 5 2 6 11 10 12 13 13 15 14 16 13 11 11 12 12 12 6 8 11 9 10 15 17 18 19 17 18 17 17 18 17 16 16 20 20 17 16 16 15 14
11 10 12 13 13 13 14 15 16 16 17 15 9 7 3 4 3 3 4 6 10 11 7 0 11 6 3 5 5 3 3 4 4 4 5 1 6 5 5 6 3 4 8 7 5 6 2 7 8 10 13 13 14 15 17 17 13 11 8 9 14 15 17 16 14 6 5 6 14 17 19 20 21 20 18 18 17 18 19 20 19 20 17 14 14 16 16 14
10 11 13 13 13 12 16 15 15 16 17 10 9 5 6 5 7 8 1 8 11 10 12 11 7 7 9 6 5 7 4 7 5 6 5 5 3 7 8 7 7 8 10 11 7 4 3 9 14 18 17 16 11 8 11 14 11 11 13 13 13 12 16 13 9 7 5 5 10 12 16 18 19 18 18 18 18 21 21 22 22 23 20 16 17 16 14 11
10 10 13 14 12 13 15 15 15 15 15 7 5 4 2 4 3 2 3 9 9 7 2 6 3 9 3 3 3 3 2 6 7 9 4 6 7 9 7 10 10 11 6 7 4 4 8 12 18 17 10 1 1 6 8 11 13 10 9 10 10 13 13 16 2 6 4 4 12 11 15 17 18 18 19 20 21 18 19 21 21 20 18 15 15 14 11 8
10 10 12 12 11 13 15 14 15 14 7 3 3 4 2 3 4 4 2 7 12 7 10 7 9 12 11 4 4 3 9 12 12 11 11 8 9 11 7 10 11 10 7 11 11 9 10 13 21 16 4 8 5 4 7 9 9 9 8 8 12 10 6 10 4 1 6 5 9 12 15 18 20 20 24 24 21 19 17 20 19 16 16 17 17 10 8 10
10 11 12 13 9 12 15 13 16 11 2 3 4 2 2 3 4 4 3 6 7 5 10 8 10 12 13 9 8 11 14 9 9 11 10 12 11 7 7 14 13 11 13 15 18 14 15 7 5 4 4 6 11 6 7 8 9 9 12 12 12 10 13 10 6 3 7 12 3 10 14 15 14 15 13 16 18 13 15 13 15 15 15 15 12 10 9 10
11 10 11 12 11 13 12 15 8 2 4 3 2 1 1 2 3 4 4 7 8 6 4 2 4 6 5 5 5 9 10 7 9 4 8 11 12 7 10 8 9 15 15 15 15 17 18 11 4 3 4 6 7 8 10 9 9 10 13 16 16 15 15 14 5 10 8 11 4 6 13 13 8 9 10 4 4 7 9 8 13 15 14 10 12 13 9 8
12 11 11 10 11 13 14 8 1 5 7 1 3 1 1 2 3 3 3 6 11 5 3 8 9 3 6 6 6 7 7 8 2 2 8 2 5 6 4 6 8 13 13 15 14 9 10 4 3 9 7 6 8 11 10 9 11 9 6 4 14 15 14 11 12 6 7 7 3 6 6 18 7 6 7 5 7 9 5 8 12 12 10 9 10 7 8 11
12 11 10 8 8 10 8 2 5 7 6 2 2 1 1 3 1 4 3 6 13 8 8 3 3 2 1 4 7 7 5 5 3 4 3 2 6 3 8 7 4 4 3 1 2 8 7 4 4 4 8 8 7 11 12 13 8 9 4 3 1 4 7 9 7 7 11 10 8 6 6 17 15 7 6 9 10 7 9 11 12 10 10 12 15 5 9 10
12 12 11 7 7 4 6 8 8 7 3 2 1 0 1 2 3 3 2 8 6 7 5 4 0 2 2 2 3 7 3 3 4 4 4 2 2 5 8 15 12 9 8 5 14 2 7 6 8 9 8 7 12 9 2 12 9 1 2 3 3 1 2 1 4 7 8 9 9 6 8 10 12 3 16 14 12 12 13 14 15 15 14 12 12 11 8 10
13 12 9 5 2 3 6 7 7 7 3 1 1 2 1 2 3 3 2 10 3 3 5 4 1 2 4 2 6 1 2 1 3 4 1 1 5 2 8 13 13 8 7 13 14 2 2 2 4 9 7 10 3 5 4 6 11 3 3 7 6 4 3 3 3 6 8 7 14 7 11 7 22 4 7 7 10 11 12 14 14 15 14 10 9 6 6 7
14 12 8 6 2 6 7 5 7 1 1 1 3 3 1 3 3 5 5 11 2 3 3 3 4 6 10 8 6 5 4 1 3 3 5 4 7 3 2 3 4 6 8 8 9 7 2 2 3 2 10 3 6 6 5 7 5 7 3 2 2 2 3 2 4 4 5 12 15 12 17 12 18 1 9 9 9 11 11 9 10 10 7 9 7 7 7 7
15 14 11 10 8 4 4 6 3 3 2 1 3 4 3 3 5 5 17 3 7 2 3 5 6 9 12 13 7 9 7 4 4 8 5 2 5 7 3 2 3 4 4 5 8 12 6 5 2 4 3 5 5 5 6 2 1 3 2 3 2 5 2 4 3 2 5 15 6 16 18 19 13 4 6 10 10 14 11 6 9 10 9 7 4 6 7 8
17 15 14 13 10 6 6 3 5 3 2 2 3 4 4 4 4 14 10 9 7 6 10 8 7 8 11 10 3 7 9 6 8 8 9 7 6 10 12 11 7 3 7 7 8 3 8 11 9 4 3 8 5 3 3 3 3 4 5 4 4 4 1 5 4 5 9 12 4 5 13 11 23 19 8 3 6 11 8 8 9 10 9 7 2 6 6 5
17 17 17 14 10 11 13 1 5 3 3 2 3 5 5 4 12 15 8 8 5 8 4 2 9 11 6 8 8 6 1 6 11 10 7 4 6 9 10 11 8 5 8 3 8 3 4 4 10 9 3 9 9 9 5 3 10 9 10 8 4 7 7 9 8 8 11 6 3 5 0 13 11 12 15 21 15 12 10 8 10 11 10 9 5 5 5 5
19 16 13 13 14 14 7 7 4 7 3 2 5 5 5 6 17 8 13 12 9 5 6 3 5 7 8 10 7 11 6 8 10 8 11 6 8 8 10 16 11 5 3 3 5 5 7 7 10 13 7 13 16 17 12 4 12 13 8 8 9 7 3 7 7 10 10 7 2 4 1 5 0 4 12 20 20 17 11 10 9 10 11 8 4 4 4 6
19 16 14 10 11 12 9 8 7 6 2 2 5 8 10 15 10 5 9 8 4 3 4 2 7 9 9 9 2 8 8 4 11 9 10 10 9 10 11 13 18 10 1 4 5 1 12 14 4 10 4 15 14 13 4 6 2 8 7 6 6 11 8 13 7 6 6 8 10 6 7 5 10 3 6 1 7 13 11 12 13 10 11 8 6 7 7 6
13 11 12 8 9 11 9 8 9 7 6 3 6 8 16 13 5 4 5 5 4 7 6 3 2 7 8 7 5 9 4 5 8 7 7 12 12 11 10 6 13 21 10 11 3 4 3 9 7 5 0 8 5 3 7 4 7 7 8 9 9 4 6 8 10 3 2 4 16 4 9 12 10 20 13 9 10 12 11 13 10 12 11 10 9 10 9 8
11 6 7 11 12 11 11 11 9 8 4 6 9 12 15 9 12 7 3 4 2 7 8 10 9 9 7 10 8 12 6 3 6 7 7 7 10 16 9 12 10 16 20 11 5 5 8 4 3 6 6 1 1 4 2 3 2 9 5 6 5 2 4 3 7 4 7 10 15 8 16 17 11 14 12 14 14 14 14 15 14 13 10 11 10 9 10 10
7 5 11 13 12 15 16 14 13 8 6 8 14 21 7 14 8 13 3 4 2 7 7 11 7 13 10 11 10 12 10 10 9 9 9 10 7 13 15 6 13 14 20 16 9 2 2 6 3 1 5 4 0 2 3 2 4 3 1 6 5 5 5 9 4 8 8 11 10 16 21 16 18 15 4 13 15 15 17 15 11 11 11 10 11 11 9 6
7 4 4 13 13 18 15 15 11 10 8 8 12 16 10 15 10 11 9 7 6 8 12 13 12 8 11 11 8 10 15 11 11 10 6 8 12 8 11 10 9 17 16 15 8 4 1 8 4 2 2 4 2 5 7 9 6 2 3 4 2 2 4 7 9 4 6 13 10 18 19 18 13 7 9 12 16 17 17 13 11 12 13 12 11 11 10 8
6 3 6 5 17 14 14 15 10 9 8 16 17 15 3 7 10 6 4 11 10 11 11 13 13 14 11 12 9 7 10 12 12 10 13 6 11 9 10 12 7 10 16 17 13 9 6 6 11 4 5 3 5 9 10 12 11 6 5 8 5 3 2 5 4 9 9 8 11 10 15 19 3 2 8 7 14 12 11 11 10 10 11 10 10 11 10 11
3 4 1 4 13 14 13 9 9 13 12 6 8 11 12 10 4 6 11 9 5 4 7 7 9 13 11 9 7 10 5 9 9 10 10 10 12 8 11 11 8 5 7 9 11 5 3 4 14 4 2 9 10 9 16 17 16 14 15 14 15 10 7 7 12 5 3 6 7 9 15 18 10 7 5 6 2 3 4 6 6 7 9 7 8 9 9 9
3 5 1 8 15 19 15 10 5 5 3 11 17 11 9 5 11 10 5 6 8 8 2 5 10 11 9 16 14 8 7 7 11 11 9 13 11 16 6 16 13 13 11 7 12 15 10 5 9 12 14 14 9 4 2 4 2 5 10 10 13 12 11 10 12 5 1 7 7 12 13 22 10 8 6 3 1 3 6 5 9 7 6 7 9 8 8 10
4 5 4 11 16 20 12 8 3 7 10 8 4 7 5 6 5 2 5 8 7 2 3 3 10 10 10 12 11 10 9 9 7 11 7 9 13 14 5 16 9 10 10 4 3 2 7 1 4 12 6 6 3 2 1 2 2 4 7 7 8 14 13 12 9 2 4 4 7 9 15 15 14 8 6 8 9 8 10 10 14 13 7 9 11 8 9 8
6 4 2 7 15 15 12 9 7 11 9 8 7 13 8 7 7 10 12 10 7 4 12 7 6 12 9 4 2 10 8 12 8 15 10 6 9 7 9 9 11 6 10 6 10 7 2 3 8 7 6 4 13 4 3 2 5 10 11 10 12 10 10 6 3 2 5 14 19 12 15 10 15 11 3 11 12 9 10 12 14 15 12 10 9 9 8 8
3 2 1 5 10 11 15 12 14 13 12 12 13 15 10 8 8 14 12 11 9 11 6 8 10 1 6 4 9 7 7 12 9 7 9 4 8 4 4 12 12 10 10 6 7 8 9 4 8 11 12 14 12 15 17 5 9 8 9 12 14 17 13 7 11 7 13 19 24 15 16 22 25 21 24 24 16 7 10 13 10 10 14 11 9 9 8 8
4 6 4 4 7 8 7 3 3 7 11 14 13 13 12 13 7 12 12 13 12 11 13 5 3 2 10 5 9 12 17 14 12 4 7 2 5 0 1 4 4 8 11 4 3 8 2 5 12 13 15 15 18 20 3 8 6 8 11 12 10 14 19 16 8 10 18 16 12 16 23 21 20 25 26 27 23 23 27 28 16 9 7 7 8 8 9 10
5 7 4 4 2 11 10 8 7 7 10 12 10 6 16 18 13 9 11 9 13 17 10 8 4 6 4 9 12 15 14 13 13 15 12 14 9 8 3 3 4 6 2 2 2 2 1 7 17 24 28 25 22 24 24 17 9 13 10 14 15 15 12 15 14 21 18 7 18 15 24 21 17 20 25 30 28 25 25 25 24 15 7 10 11 11 11 11
8 4 6 6 10 5 9 12 12 12 7 8 9 6 15 16 16 14 7 15 8 11 9 3 13 17 17 17 13 11 9 15 11 12 10 14 12 16 15 4 7 6 6 3 0 5 7 14 15 17 20 21 20 21 20 22 22 14 14 12 16 17 15 19 26 28 12 14 19 20 24 22 20 19 22 27 27 28 30 30 26 21 16 10 4 8 11 13
8 5 5 3 6 3 15 19 22 24 18 19 8 15 18 18 20 18 13 6 11 8 15 13 17 22 22 22 17 15 13 10 10 12 12 13 19 14 10 6 6 4 6 3 3 3 1 11 11 15 17 16 16 18 21 27 23 22 17 13 10 13 21 27 29 11 16 24 27 24 24 28 22 21 28 30 30 30 29 27 26 25 19 11 6 9 14 17
5 5 4 3 8 7 8 6 11 16 14 16 12 14 13 19 22 18 14 12 8 10 13 20 15 18 21 21 21 17 18 21 20 17 13 19 14 8 10 14 4 1 4 7 4 1 7 11 12 13 14 18 20 22 22 22 18 14 13 14 12 16 22 24 16 9 17 23 22 28 29 26 16 24 28 30 31 28 25 29 29 21 19 22 19 17 21 24
6 8 7 10 11 7 7 10 9 11 12 12 14 16 14 18 20 20 19 17 22 17 14 23 21 26 20 20 21 23 23 23 24 27 24 16 15 9 12 2 14 4 4 1 2 2 6 9 8 4 11 15 15 22 24 15 14 17 17 16 20 26 26 22 20 18 19 20 24 21 17 17 21 29 30 29 27 25 29 31 26 20 23 25 17 16 17 19
5 6 7 5 9 3 11 5 9 8 13 9 11 13 14 19 20 16 19 16 20 18 17 17 18 18 16 21 24 22 22 25 26 27 22 19 12 3 7 6 11 11 6 8 4 4 6 5 8 9 13 17 16 18 18 16 13 15 17 27 35 32 25 24 26 27 25 21 19 15 15 20 24 22 20 22 26 28 29 25 18 17 23 19 16 16 15 19
Wind_Direction
20 19 19 16 15 14 11 4 356 353 351 350 350 348 348 348 349 351 351 346 338 341 339 327 328 318 314 313 309 7 303 242 259 241 226 261 98 123 102 76 60 5 191 244 219 191 200 213 211 170 208 206 164 231 134 209 266 220 225 241 259 263 262 358 267 267 27 294 127 180 193 220 228 157 192 157 239 236 248 220 232 225 223 225 122 130 140 137
17 17 16 14 13 11 6 359 354 350 348 346 344 345 346 344 344 343 344 343 346 333 335 337 323 325 317 311 323 313 265 260 271 270 254 104 82 85 64 22 62 120 226 236 225 216 243 213 214 182 209 224 128 219 160 176 206 223 248 254 271 288 5 327 301 295 284 278 321 196 193 222 256 157 160 206 225 214 232 236 223 228 226 179 147 150 152 158
13 13 14 12 10 6 360 355 352 347 345 343 340 340 342 340 336 339 339 339 337 340 329 330 331 319 323 317 288 275 279 259 268 263 170 12 81 64 358 27 83 162 225 296 300 272 257 296 274 208 217 242 172 205 206 167 202 230 263 257 261 319 302 268 261 268 271 299 257 241 223 220 233 228 130 227 250 225 226 233 214 225 228 210 175 167 169 174
10 9 8 8 5 359 356 353 350 347 345 339 338 336 335 333 335 336 336 336 337 334 331 323 323 329 313 311 335 256 241 289 268 217 87 57 40 47 19 351 119 215 243 252 286 272 282 259 242 222 221 245 156 215 208 173 228 122 230 244 290 19 305 304 218 266 274 295 267 267 113 237 233 207 183 235 244 247 245 234 232 216 225 218 180 175 175 182
6 5 4 2 358 356 350 348 349 345 342 341 340 333 333 330 326 330 334 330 334 333 334 323 318 316 318 300 290 239 268 283 253 60 63 45 28 18 51 55 205 221 241 302 239 238 247 230 201 224 246 231 208 205 239 148 242 314 241 267 299 268 278 344 113 60 315 320 276 255 231 259 148 211 221 230 240 252 246 250 228 234 225 233 167 179 178 185
2 1 0 357 353 352 348 346 346 343 340 338 337 331 328 327 327 330 329 328 326 328 329 324 309 307 305 301 273 236 231 264 87 101 30 26 32 36 57 146 212 245 203 203 233 232 225 201 209 212 222 242 212 228 176 184 161 246 244 242 252 266 265 76 236 104 189 237 238 238 250 257 205 245 222 229 234 243 253 38 24 235 243 302 157 165 180 188
357 355 355 352 348 348 347 345 342 340 339 334 332 329 327 327 319 329 327 321 324 324 324 319 314 293 304 299 235 242 221 267 138 101 45 21 20 87 101 131 196 197 207 226 222 228 225 246 224 243 251 260 256 244 171 187 188 248 276 306 254 229 241 255 252 127 217 236 241 267 24 253 244 253 247 237 235 243 247 134 169 131 115 147 158 172 184 190
357 351 352 349 345 344 343 341 338 338 335 332 328 325 325 323 319 322 326 322 317 322 318 309 303 298 284 248 211 219 220 253 92 87 76 42 147 122 166 182 172 183 220 233 256 244 266 266 256 293 260 260 34 252 115 233 203 234 248 265 263 237 251 252 229 222 223 237 250 274 257 246 246 261 287 252 247 244 244 238 191 178 180 187 187 185 191 195
354 349 347 345 342 337 338 337 336 336 332 328 325 322 320 317 318 320 318 317 314 313 316 314 283 298 277 273 245 280 248 64 48 74 69 118 128 134 213 176 188 200 235 242 255 281 287 267 261 252 304 300 49 260 169 260 244 215 258 311 264 252 251 241 238 236 229 235 208 229 243 250 254 317 269 257 257 244 243 242 232 205 204 208 208 200 196 199
347 345 341 340 339 336 335 335 333 331 329 326 323 320 315 315 318 317 317 314 305 317 303 292 279 270 270 198 241 254 53 259 71 59 61 89 120 160 197 322 225 227 232 197 246 243 254 328 331 28 294 270 252 264 61 219 301 2 299 290 277 269 272 242 241 248 231 232 204 223 246 249 169 132 270 245 252 243 234 233 231 222 225 221 215 212 206 203
338 337 335 334 334 332 333 331 331 328 326 325 321 317 314 310 311 312 317 308 307 307 302 269 285 160 216 221 242 257 85 250 351 56 74 189 246 212 60 347 316 249 246 242 267 339 332 273 120 125 219 304 83 230 227 287 348 300 320 291 269 256 247 243 234 240 193 245 214 226 252 261 192 212 247 240 99 175 208 214 220 216 226 225 220 215 211 211
329 330 330 329 326 327 329 327 326 325 324 323 320 316 311 308 310 311 308 309 307 310 314 318 215 260 263 246 237 256 342 38 290 119 94 20 88 68 10 318 279 277 272 262 168 25 345 37 199 222 287 30 261 343 240 15 287 304 303 291 280 278 255 229 226 223 196 225 154 173 272 243 212 228 238 242 157 178 198 211 214 216 224 224 221 216 211 211
316 327 325 319 318 320 322 322 322 323 322 320 318 315 311 307 309 312 315 310 316 294 298 243 247 248 260 252 242 65 266 97 91 111 108 102 112 100 102 112 198 218 277 282 155 103 343 137 249 260 276 280 280 280 69 256 256 284 257 260 287 273 263 248 200 172 173 201 148 182 269 264 208 223 243 234 177 186 210 222 221 228 226 223 219 215 213 208
309 323 321 309 307 312 316 315 319 319 320 317 315 313 308 304 307 312 310 305 304 258 230 248 259 239 226 262 96 248 109 75 137 155 124 153 185 110 146 119 100 105 54 118 79 74 155 1 282 302 85 264 283 74 250 211 202 251 268 207 260 278 270 130 165 166 200 140 165 189 256 268 277 217 228 203 175 182 218 221 226 232 228 219 215 213 211 209
322 317 312 309 309 305 305 309 314 316 314 316 312 308 304 300 308 307 304 281 62 175 188 245 240 230 227 253 96 113 312 323 228 166 95 212 169 139 159 128 72 68 76 79 101 79 160 157 221 226 221 72 282 256 263 256 219 227 251 254 222 229 267 172 188 173 202 144 192 183 245 257 273 285 259 160 181 198 235 237 232 234 234 222 211 209 210 212
317 306 313 313 310 309 303 308 312 313 313 313 310 304 298 294 304 304 291 328 150 201 232 216 183 254 307 268 111 131 214 214 194 90 113 333 262 247 118 110 104 108 128 77 97 143 186 204 268 332 37 185 237 255 274 277 260 222 229 262 269 255 264 257 187 201 240 122 191 197 248 279 262 309 107 149 175 213 237 250 251 251 250 240 219 208 208 209
307 303 317 315 312 310 308 307 312 312 311 313 310 300 293 290 293 275 216 202 163 213 223 295 168 182 264 73 121 223 214 154 58 159 115 33 331 153 145 148 166 122 109 134 184 196 150 231 126 240 221 252 254 252 266 262 268 254 210 254 267 269 277 268 103 250 190 200 201 216 245 245 259 273 261 170 215 207 236 257 263 261 257 249 239 218 208 205
297 301 313 312 309 311 308 307 312 312 314 315 308 295 287 297 296 184 206 214 146 203 219 282 230 254 232 92 249 248 50 122 178 102 64 65 267 193 220 195 122 164 156 168 167 228 168 224 154 267 252 217 220 219 220 253 264 293 289 254 259 261 251 262 270 159 175 202 242 229 229 250 256 263 267 265 222 222 242 256 264 265 262 258 248 237 220 207
289 296 303 303 305 311 308 308 310 312 316 318 297 280 263 243 208 245 202 151 181 177 208 173 189 197 286 121 125 116 121 69 90 193 164 147 156 198 229 343 180 167 209 219 174 197 163 238 212 254 248 227 216 212 217 238 261 279 289 288 294 286 280 273 290 131 189 190 224 235 248 256 259 256 262 262 264 263 259 257 260 262 263 262 253 249 235 218
283 291 299 302 304 306 306 308 307 313 323 325 330 315 192 216 187 185 182 215 226 238 298 182 205 283 301 180 179 70 140 223 158 196 106 115 146 181 207 197 154 255 238 225 165 196 168 215 228 231 237 238 231 223 234 250 271 286 292 280 273 275 274 271 273 154 193 254 245 248 253 258 262 265 267 268 271 272 270 267 264 261 263 262 257 249 242 223
287 292 296 298 299 301 302 304 307 312 320 310 300 290 283 302 268 278 152 235 232 245 254 251 242 262 276 72 125 157 187 200 251 162 163 144 257 175 196 186 196 225 221 229 244 104 192 233 238 242 248 263 283 292 253 256 261 267 271 274 275 267 269 265 283 144 180 218 267 262 268 262 262 266 265 266 264 262 265 266 262 265 267 266 258 254 243 240
277 282 288 294 298 307 299 299 307 312 304 276 274 288 349 50 357 321 312 278 227 216 15 255 1 271 232 220 97 280 57 265 205 176 158 192 173 202 175 189 205 231 186 168 137 195 213 226 244 246 262 59 17 283 271 266 267 260 250 261 270 263 265 274 205 140 140 207 265 271 275 273 270 267 264 259 254 249 251 255 263 271 275 271 266 259 251 186
264 267 283 290 297 304 297 301 302 309 311 323 301 287 34 2 314 315 298 273 273 220 223 206 226 236 242 123 178 149 229 223 244 169 175 185 168 219 197 195 225 228 168 194 215 211 236 238 249 257 205 255 241 200 246 253 246 247 236 234 242 257 284 279 135 158 192 221 287 301 288 276 271 256 249 247 247 247 240 251 261 264 264 262 262 266 247 189
261 264 277 290 306 291 296 304 301 282 302 315 303 25 17 319 301 282 240 252 286 202 206 216 237 240 234 225 168 182 211 240 222 218 156 174 183 180 227 214 234 232 225 215 220 227 227 246 65 117 217 223 250 210 217 229 242 222 233 245 254 257 249 253 315 304 261 232 259 293 275 267 247 250 237 234 235 240 248 249 263 263 256 257 270 263 242 211
263 266 275 290 300 296 296 315 290 330 318 248 127 54 185 291 278 309 284 279 227 229 79 262 191 242 196 63 142 186 227 250 225 55 172 193 172 144 223 216 229 239 233 229 235 242 249 243 127 110 200 215 227 238 219 226 253 246 219 227 243 256 272 281 316 356 317 294 147 347 315 273 246 240 247 155 124 210 238 232 241 255 259 251 253 247 220 202
260 262 269 285 297 296 301 295 85 334 303 289 50 63 235 199 264 273 284 271 268 166 82 222 150 213 116 177 124 187 64 246 93 113 168 237 351 232 109 218 200 246 238 232 239 245 250 99 174 230 216 208 230 247 250 191 244 247 247 260 256 261 273 284 293 333 282 273 90 339 345 293 137 244 225 200 183 195 174 218 242 236 252 255 243 220 185 186
255 255 263 276 297 315 301 10 358 302 269 136 99 327 244 257 252 275 270 251 268 156 172 46 214 155 349 91 153 123 224 214 98 100 164 23 208 237 233 210 162 237 16 54 332 238 191 183 187 223 226 228 232 248 231 203 233 245 68 297 80 257 258 263 271 242 266 292 285 154 233 280 285 201 216 226 233 191 213 235 241 237 226 233 262 225 170 180
250 251 253 266 281 306 299 309 308 280 336 34 351 234 262 253 255 248 229 290 267 108 139 197 316 20 334 131 286 216 358 59 174 171 5 23 285 187 224 231 217 213 178 177 239 74 183 184 192 194 201 213 232 237 87 192 211 279 46 25 58 37 263 159 235 263 273 303 277 197 185 270 261 202 195 202 225 223 232 236 247 253 249 239 224 249 167 179
243 245 247 235 259 302 292 279 291 289 53 33 306 274 261 208 261 274 270 258 114 103 334 107 310 179 92 129 204 312 249 113 310 71 221 106 284 333 219 243 251 292 196 203 243 224 37 37 199 195 172 226 186 48 346 190 223 126 136 81 84 92 90 224 265 268 280 274 262 199 169 249 280 160 175 183 215 218 221 231 238 246 250 248 245 210 162 177
234 236 223 181 232 254 251 240 246 78 17 20 266 268 224 224 212 223 204 248 73 218 110 77 189 175 152 154 214 203 240 200 46 132 178 192 163 239 330 2 283 239 246 248 270 283 94 153 17 228 219 251 86 55 32 18 55 122 140 138 117 178 208 191 236 260 291 253 248 203 184 195 278 189 157 156 196 194 211 217 232 245 243 248 219 170 166 172
227 224 204 168 223 256 296 261 158 121 121 276 261 260 245 221 238 241 241 210 356 118 124 161 173 127 162 177 213 184 218 203 153 162 151 204 164 217 224 207 208 268 258 255 253 245 190 150 222 224 53 100 114 87 51 26 67 182 147 227 236 231 200 246 215 179 249 267 235 177 191 189 241 138 169 201 186 191 172 210 259 275 270 273 175 161 165 173
222 216 193 187 225 223 216 283 110 127 146 200 249 227 213 223 207 227 239 84 263 167 179 171 176 185 197 207 246 165 182 191 182 189 193 185 182 182 198 206 152 201 239 214 250 152 223 214 196 104 238 177 160 196 89 115 174 215 198 188 232 256 219 240 167 222 211 249 94 164 183 220 230 239 253 213 184 197 174 248 266 263 265 264 135 134 153 156
219 213 195 199 207 225 231 174 130 120 144 186 224 227 205 213 247 218 232 126 248 139 191 137 173 180 193 186 229 167 122 210 171 199 194 182 214 224 214 225 188 224 269 164 228 215 244 86 174 183 94 215 177 204 174 211 189 188 197 191 207 257 244 261 252 242 262 240 129 124 69 246 275 274 232 245 229 213 221 230 243 247 251 255 151 156 147 167
222 209 201 200 208 220 213 135 137 136 161 223 216 186 249 222 245 109 208 190 215 22 81 111 119 169 178 196 194 162 216 214 149 193 188 201 199 233 213 220 231 256 201 271 254 217 268 253 200 150 226 160 192 212 209 248 162 201 198 179 209 218 248 274 261 257 253 283 136 197 134 234 101 272 187 215 226 215 208 233 235 238 243 238 125 120 162 174
225 215 209 199 206 211 180 141 133 171 200 215 227 206 193 231 241 206 218 204 181 136 127 72 166 177 221 239 176 206 226 202 186 158 193 197 209 211 211 205 206 208 133 248 222 150 227 251 134 160 31 148 189 210 87 105 140 188 196 218 251 234 222 245 256 290 309 326 290 175 217 272 256 26 137 126 185 199 201 226 229 233 235 219 170 190 194 188
226 225 205 208 196 193 131 139 147 156 161 203 213 213 221 220 244 165 256 183 147 186 137 139 176 201 221 216 189 220 156 231 164 189 219 210 227 225 212 198 189 188 175 203 152 226 65 256 115 121 87 173 163 28 188 185 226 156 162 203 208 28 225 257 276 280 97 286 259 191 256 249 261 264 197 162 168 178 182 221 219 230 229 231 224 225 206 195
223 219 210 213 206 160 141 149 151 149 164 201 196 227 231 250 241 277 337 224 277 151 142 225 206 205 206 224 196 190 191 177 194 189 224 170 244 230 217 214 175 188 203 179 232 227 245 266 122 172 219 112 11 334 27 17 356 114 217 211 66 346 31 245 264 257 248 254 273 278 266 280 275 292 140 166 185 187 205 224 224 226 230 239 236 235 226 209
231 206 231 222 187 149 159 158 149 151 158 187 210 227 207 242 224 242 149 122 118 175 216 207 242 185 223 225 224 176 160 196 171 173 248 170 262 169 186 215 186 191 205 211 224 269 135 281 182 295 32 91 64 162 222 165 297 267 220 352 181 204 204 210 240 246 260 257 271 270 272 265 260 254 162 193 189 202 216 223 220 223 228 233 237 241 241 222
231 235 241 224 151 163 156 150 152 141 157 188 219 242 239 247 234 235 196 191 191 201 217 224 239 206 232 240 251 172 158 205 158 193 210 187 238 153 180 175 195 204 203 192 221 238 150 240 239 353 128 105 157 193 224 176 197 192 310 249 20 325 234 193 198 244 234 261 269 275 283 274 253 238 239 206 183 199 214 212 208 217 220 222 229 238 242 227
223 239 246 101 150 146 146 148 152 158 168 197 206 226 236 272 249 248 233 213 224 215 235 247 232 254 227 242 232 217 195 208 168 210 206 164 231 154 187 174 187 193 204 189 204 206 244 147 258 86 302 175 222 191 213 172 178 185 220 230 185 206 16 345 288 229 220 238 246 272 279 274 294 218 221 176 186 208 218 215 197 207 218 214 219 230 233 233
223 247 305 109 138 136 132 141 160 177 200 245 267 264 262 260 305 267 243 244 293 265 277 253 245 233 237 249 226 232 217 209 218 223 204 224 211 249 174 182 192 177 170 195 223 193 206 176 236 159 168 213 236 172 196 198 189 185 182 202 196 174 199 215 245 209 234 226 233 246 255 268 276 113 144 148 216 225 249 256 259 212 208 207 219 223 224 241
247 261 187 153 143 140 145 177 221 194 215 197 213 203 235 265 269 270 240 235 246 249 1 270 244 265 249 243 249 225 212 212 211 226 207 232 205 229 164 183 186 142 151 176 207 201 191 189 216 220 216 235 227 239 313 343 346 244 201 214 193 196 184 199 236 206 132 236 257 247 265 258 252 79 113 160 194 289 290 251 243 231 192 212 224 228 228 223
195 256 7 161 166 154 165 206 186 205 212 245 301 314 266 266 262 289 264 211 242 164 313 266 241 245 235 251 251 251 218 249 212 228 227 231 249 228 165 188 184 174 188 198 225 207 55 176 224 251 291 314 281 67 318 16 246 287 251 238 204 214 204 221 233 233 238 184 216 229 237 259 272 102 282 303 294 269 265 256 260 256 239 231 239 227 226 229
235 203 163 213 182 163 183 185 201 227 240 294 241 247 246 250 239 242 239 219 223 180 230 236 263 227 264 257 285 258 247 265 216 251 250 245 261 236 250 223 179 190 188 181 210 147 193 179 216 243 248 286 276 251 209 171 195 223 225 214 224 227 219 229 26 77 251 231 244 243 252 253 258 109 211 259 257 243 237 241 250 263 256 242 227 217 218 217
316 357 323 190 213 190 199 197 211 206 209 225 228 237 240 238 225 235 234 233 219 242 249 245 249 23 241 204 259 267 257 247 276 256 269 248 269 49 336 245 208 224 213 11 19 148 222 170 184 224 222 229 227 231 237 197 201 218 234 230 212 214 214 209 233 212 246 243 241 245 261 255 270 290 289 283 279 248 246 249 272 245 244 235 209 212 208 207
210 259 152 210 216 248 279 328 266 212 209 219 241 238 240 250 252 242 231 249 230 240 233 254 25 190 248 224 235 237 245 237 237 248 235 275 263 3 207 332 253 220 236 182 198 157 237 184 216 227 232 232 230 245 269 94 154 191 210 213 203 210 216 222 227 233 230 241 240 242 250 268 276 279 283 285 285 289 290 287 277 251 234 221 217 212 210 214
309 254 147 215 256 240 245 231 220 181 216 190 226 153 229 228 233 255 182 249 203 229 235 228 217 231 223 227 239 249 241 252 234 248 246 259 256 261 39 42 321 275 48 338 307 292 36 234 223 232 235 237 239 242 249 246 219 194 194 207 208 207 207 213 217 236 236 266 252 244 254 258 258 268 274 277 280 283 280 279 280 274 227 213 218 217 226 231
245 238 228 189 200 182 228 257 246 244 256 209 229 199 231 226 220 238 202 228 228 196 208 216 219 222 227 225 219 234 224 240 235 247 245 252 265 262 266 182 216 183 163 221 184 195 220 241 238 243 245 245 249 258 259 257 252 235 198 195 203 204 208 213 225 232 219 236 254 251 254 260 261 257 263 267 276 278 276 277 283 286 285 275 176 209 221 230
246 331 299 334 254 227 215 219 214 224 222 221 221 219 229 231 231 216 215 205 208 215 196 236 218 225 224 228 224 238 225 253 243 230 226 237 232 243 254 258 230 140 166 190 179 185 278 242 248 247 262 259 260 257 258 263 267 266 253 243 239 226 227 230 240 219 217 243 247 254 258 259 260 259 264 269 271 272 274 280 282 281 280 268 211 249 268 271
237 248 256 272 267 286 306 277 244 234 236 224 236 221 223 230 236 235 224 210 219 220 193 232 226 222 222 223 225 229 223 225 234 244 217 222 239 215 240 221 232 36 161 197 156 254 189 239 232 252 259 253 250 252 256 255 260 270 273 274 283 281 264 250 254 235 235 241 244 242 247 257 261 260 260 261 263 268 278 273 272 282 284 277 277 284 284 281
311 313 317 297 291 275 256 251 243 241 243 222 231 237 242 243 242 237 240 210 214 222 187 223 216 236 230 228 228 230 230 232 234 235 243 235 243 201 221 214 200 174 153 176 143 272 196 250 224 236 240 248 238 243 242 247 257 267 276 281 268 254 255 263 258 243 235 242 248 253 254 252 253 257 257 259 266 268 266 267 273 276 277 277 288 279 271 271
344 317 313 300 275 252 279 259 250 242 237 214 225 223 222 238 237 241 257 239 242 231 230 219 216 232 231 235 235 231 232 232 233 236 244 254 257 95 231 217 192 179 179 205 166 189 186 198 213 217 237 239 238 242 246 255 272 270 258 246 243 247 250 255 256 256 252 251 254 246 234 229 240 250 266 269 264 263 262 261 269 268 266 273 278 271 263 263